• In Latvia
  • List of Countries
  • For 7 days
  • Water Temperature
  • Satellite Maps
  • Weather Map
  • Weather Widgets
  • user-avatar
    Login

    Hourly Weather Bedford

    Today, 26 September, Tuesday

    Time Temperature Precipitation Wind Pressure Humidity
    00:00 +14°C° 0 mm 1 mps 763 mmHg 92%
    01:00 +14°C° 0 mm 1 mps 763 mmHg 93%
    02:00 +14°C° 0 mm 1 mps 763 mmHg 93%
    03:00 +13°C° 0 mm 1 mps 763 mmHg 94%
    04:00 +13°C° 0 mm 1 mps 763 mmHg 95%
    05:00 +13°C° 0 mm 1 mps 763 mmHg 95%
    06:00 +13°C° 0 mm 1 mps 763 mmHg 95%
    07:00 +14°C° 0 mm 2 mps 763 mmHg 90%
    08:00 +16°C° 0 mm 2 mps 763 mmHg 86%
    09:00 +17°C° 0 mm 2 mps 764 mmHg 81%
    10:00 +18°C° 0 mm 2 mps 764 mmHg 76%
    11:00 +19°C° 0 mm 2 mps 763 mmHg 71%
    12:00 +20°C° 0 mm 2 mps 763 mmHg 66%
    13:00 +20°C° 0.1 mm 2 mps 763 mmHg 65%
    14:00 +20°C° 0.1 mm 2 mps 763 mmHg 65%
    15:00 +21°C° 0.1 mm 1 mps 763 mmHg 64%
    16:00 +19°C° 0.1 mm 2 mps 763 mmHg 69%
    17:00 +18°C° 0.1 mm 2 mps 763 mmHg 74%
    18:00 +17°C° 0.1 mm 2 mps 763 mmHg 78%
    19:00 +16°C° 0 mm 2 mps 763 mmHg 82%
    20:00 +16°C° 0 mm 2 mps 763 mmHg 86%
    21:00 +15°C° 0 mm 2 mps 764 mmHg 89%
    22:00 +15°C° 0 mm 2 mps 763 mmHg 91%
    23:00 +14°C° 0 mm 2 mps 763 mmHg 92%

    Tomorrow, 27 September, Wednesday

    Time Temperature Precipitation Wind Pressure Humidity
    00:00 +14°C° 0 mm 2 mps 763 mmHg 94%
    01:00 +14°C° 0 mm 2 mps 763 mmHg 94%
    02:00 +13°C° 0 mm 2 mps 763 mmHg 94%
    03:00 +13°C° 0 mm 2 mps 762 mmHg 95%
    04:00 +13°C° 0 mm 2 mps 762 mmHg 95%
    05:00 +13°C° 0 mm 2 mps 762 mmHg 95%
    06:00 +13°C° 0 mm 2 mps 762 mmHg 95%
    07:00 +13°C° 0 mm 3 mps 762 mmHg 90%
    08:00 +16°C° 0 mm 3 mps 762 mmHg 85%
    09:00 +17°C° 0 mm 3 mps 762 mmHg 79%
    10:00 +18°C° 0 mm 4 mps 762 mmHg 74%
    11:00 +20°C° 0 mm 4 mps 761 mmHg 69%
    12:00 +21°C° 0 mm 5 mps 761 mmHg 64%
    13:00 +21°C° 0 mm 5 mps 761 mmHg 64%
    14:00 +20°C° 0 mm 5 mps 761 mmHg 64%
    15:00 +20°C° 0 mm 5 mps 760 mmHg 65%
    16:00 +19°C° 0 mm 5 mps 760 mmHg 69%
    17:00 +19°C° 0 mm 4 mps 760 mmHg 72%
    18:00 +18°C° 0 mm 4 mps 760 mmHg 76%
    19:00 +17°C° 0 mm 4 mps 760 mmHg 78%
    20:00 +17°C° 0 mm 4 mps 760 mmHg 80%
    21:00 +17°C° 0 mm 4 mps 760 mmHg 82%
    22:00 +17°C° 0.2 mm 4 mps 760 mmHg 83%
    23:00 +17°C° 0.2 mm 4 mps 759 mmHg 84%

    Day after tomorrow, 28 September, Thursday

    Time Temperature Precipitation Wind Pressure Humidity
    00:00 +17°C° 0.2 mm 4 mps 759 mmHg 85%
    01:00 +17°C° 1 mm 4 mps 759 mmHg 87%
    02:00 +15°C° 1 mm 4 mps 759 mmHg 90%
    03:00 +16°C° 1 mm 3 mps 759 mmHg 92%
    04:00 +16°C° 0.3 mm 3 mps 759 mmHg 92%
    05:00 +16°C° 0.3 mm 3 mps 759 mmHg 93%
    06:00 +16°C° 0.3 mm 3 mps 759 mmHg 93%
    07:00 +16°C° 0 mm 3 mps 760 mmHg 91%
    08:00 +16°C° 0 mm 3 mps 760 mmHg 89%
    09:00 +17°C° 0 mm 3 mps 761 mmHg 86%
    10:00 +17°C° 0 mm 3 mps 761 mmHg 83%
    11:00 +18°C° 0 mm 3 mps 761 mmHg 79%
    12:00 +19°C° 0 mm 3 mps 761 mmHg 75%
    13:00 +19°C° 0 mm 3 mps 761 mmHg 72%
    14:00 +19°C° 0 mm 3 mps 761 mmHg 68%
    15:00 +19°C° 0 mm 3 mps 761 mmHg 65%
    16:00 +18°C° 0 mm 2 mps 761 mmHg 68%
    17:00 +17°C° 0 mm 2 mps 762 mmHg 70%
    18:00 +16°C° 0 mm 2 mps 762 mmHg 73%
    19:00 +15°C° 0 mm 2 mps 762 mmHg 74%
    20:00 +14°C° 0 mm 2 mps 762 mmHg 76%
    21:00 +14°C° 0 mm 2 mps 763 mmHg 77%
    22:00 +13°C° 0 mm 2 mps 763 mmHg 78%
    23:00 +13°C° 0 mm 2 mps 763 mmHg 79%

    29 September, Friday

    Time Temperature Precipitation Wind Pressure Humidity
    00:00 +13°C° 0 mm 2 mps 763 mmHg 80%
    01:00 +12°C° 0 mm 2 mps 762 mmHg 81%
    02:00 +12°C° 0 mm 2 mps 762 mmHg 82%
    03:00 +11°C° 0 mm 3 mps 762 mmHg 83%
    04:00 +11°C° 0 mm 3 mps 762 mmHg 84%
    05:00 +11°C° 0 mm 3 mps 762 mmHg 85%
    06:00 +11°C° 0 mm 3 mps 762 mmHg 86%
    07:00 +12°C° 0 mm 4 mps 762 mmHg 82%
    08:00 +14°C° 0 mm 4 mps 762 mmHg 79%
    09:00 +16°C° 0 mm 5 mps 761 mmHg 76%
    10:00 +16°C° 0 mm 5 mps 761 mmHg 73%
    11:00 +17°C° 0 mm 5 mps 761 mmHg 70%
    12:00 +19°C° 0 mm 5 mps 761 mmHg 67%
    13:00 +19°C° 0.4 mm 5 mps 761 mmHg 69%
    14:00 +19°C° 0.4 mm 5 mps 760 mmHg 72%
    15:00 +19°C° 0.4 mm 5 mps 760 mmHg 74%
    16:00 +18°C° 0.7 mm 4 mps 760 mmHg 78%
    17:00 +17°C° 0.7 mm 4 mps 760 mmHg 82%
    18:00 +17°C° 0.7 mm 3 mps 760 mmHg 86%
    19:00 +16°C° 1.5 mm 3 mps 760 mmHg 88%
    20:00 +16°C° 1.5 mm 3 mps 761 mmHg 89%
    21:00 +14°C° 1.5 mm 3 mps 761 mmHg 91%
    22:00 +14°C° 0.1 mm 3 mps 761 mmHg 90%
    23:00 +13°C° 0.1 mm 3 mps 761 mmHg 89%

    30 September, Saturday

    Time Temperature Precipitation Wind Pressure Humidity
    00:00 +13°C° 0.1 mm 3 mps 761 mmHg 88%
    01:00 +12°C° 0.1 mm 3 mps 761 mmHg 88%
    02:00 +13°C° 0.1 mm 2 mps 761 mmHg 87%
    03:00 +12°C° 0.1 mm 2 mps 760 mmHg 87%
    04:00 +12°C° 0 mm 2 mps 761 mmHg 87%
    05:00 +12°C° 0 mm 2 mps 761 mmHg 88%
    06:00 +10°C° 0 mm 2 mps 761 mmHg 88%
    07:00 +11°C° 0 mm 3 mps 761 mmHg 85%
    08:00 +12°C° 0 mm 3 mps 761 mmHg 81%
    09:00 +13°C° 0 mm 3 mps 761 mmHg 78%
    10:00 +14°C° 0 mm 3 mps 761 mmHg 73%
    11:00 +16°C° 0 mm 3 mps 761 mmHg 68%
    12:00 +17°C° 0 mm 4 mps 761 mmHg 64%
    13:00 +17°C° 0 mm 4 mps 761 mmHg 63%
    14:00 +17°C° 0 mm 4 mps 761 mmHg 62%
    15:00 +17°C° 0 mm 4 mps 761 mmHg 60%
    16:00 +16°C° 0 mm 3 mps 761 mmHg 65%
    17:00 +14°C° 0 mm 3 mps 762 mmHg 69%
    18:00 +14°C° 0 mm 2 mps 762 mmHg 73%
    19:00 +13°C° 0 mm 2 mps 762 mmHg 75%
    20:00 +12°C° 0 mm 2 mps 762 mmHg 77%
    21:00 +12°C° 0 mm 2 mps 763 mmHg 79%
    22:00 +12°C° 0 mm 2 mps 762 mmHg 81%
    23:00 +10°C° 0 mm 2 mps 762 mmHg 83%

    1 October, Sunday

    Time Temperature Precipitation Wind Pressure Humidity
    00:00 +10°C° 0 mm 2 mps 762 mmHg 84%
    01:00 +9°C° 0 mm 2 mps 762 mmHg 85%
    02:00 +10°C° 0 mm 1 mps 762 mmHg 86%
    03:00 +10°C° 0 mm 1 mps 762 mmHg 87%
    04:00 +10°C° 0 mm 1 mps 762 mmHg 87%
    05:00 +9°C° 0 mm 2 mps 762 mmHg 86%
    06:00 +9°C° 0 mm 2 mps 762 mmHg 85%
    07:00 +10°C° 0 mm 2 mps 762 mmHg 82%
    08:00 +11°C° 0 mm 3 mps 762 mmHg 78%
    09:00 +12°C° 0 mm 4 mps 762 mmHg 74%
    10:00 +13°C° 0 mm 4 mps 762 mmHg 71%
    11:00 +14°C° 0 mm 5 mps 761 mmHg 68%
    12:00 +15°C° 0 mm 5 mps 761 mmHg 65%
    13:00 +15°C° 0 mm 5 mps 761 mmHg 66%
    14:00 +15°C° 0 mm 6 mps 760 mmHg 66%
    15:00 +15°C° 0 mm 6 mps 760 mmHg 67%
    16:00 +14°C° 0.1 mm 6 mps 759 mmHg 70%
    17:00 +13°C° 0.1 mm 6 mps 759 mmHg 74%
    18:00 +13°C° 0.1 mm 5 mps 759 mmHg 78%
    19:00 +13°C° 0.1 mm 6 mps 759 mmHg 78%
    20:00 +13°C° 0.1 mm 6 mps 758 mmHg 79%
    21:00 +12°C° 0.1 mm 7 mps 758 mmHg 80%
    22:00 +12°C° 0 mm 7 mps 757 mmHg 80%
    23:00 +12°C° 0 mm 7 mps 757 mmHg 81%
    Show more